Weather WX

World > North America > United States > New Jersey

Mount Ephraim, New Jersey Regional Weather

Lat: 39.88N, Lon: 75.09W
Wx Zone: NJZ018
Warning FLW WEATHER ALERT - (More Info. Click Here) Warning
Feedback

Mount Ephraim, NJ Regional Weather

Expires:201907161600;;734112
ASUS41 KPHI 161512
RWRPHI

REGIONAL WEATHER ROUNDUP
NATIONAL WEATHER SERVICE MOUNT HOLLY NJ
1100 AM EDT TUE JUL 16 2019

NOTE:  "FAIR" INDICATES FEW OR NO CLOUDS BELOW 12,000 FEET WITH NO
SIGNIFICANT WEATHER AND/OR OBSTRUCTIONS TO VISIBILITY.

 * = STATION DOES NOT REPORT PRECIPITATION (E.G. RAIN, SNOW, ETC.) 
        OR FOG.


NJZ015>026-161600-
SOUTHERN NEW JERSEY
  
CITY           SKY/WX    TMP DP  RH WIND       PRES   REMARKS
POMONA         FAIR      86  63  45 VRB7      30.10F                  
WILDWOOD*      FAIR      87  67  51 SW6       30.11F HX  90           
MILLVILLE      FAIR      85  66  53 CALM      30.10S                  
WRIGHTSTOWN    FAIR      86  64  48 W8        30.08F                  
MOUNT HOLLY    FAIR      85  63  47 W7        30.09F                  
TRENTON        FAIR      83  66  56 SW7       30.09F                  

$$

SKY/WX - Weather  TMP - Temperature  DP - Dew Point  RH - Relative Humidity
WIND - Wind Direction/Speed PRES - Barometric Pressure VSB - Visibility
WCI - Wind Chill Index E13G22 Wind - East Wind 13 mph/Gusts of 22 mph